Home   Weather   Hungry Knob   Past weeks
Flag for Australia

Past Weather in Hungry Knob, Northern Territory, Australia — Yesterday and Last 2 Weeks

Now
82 °F

Clear.


Feels Like: 80 °F
Forecast: 100 / 64 °F
Wind: 9 mph from Southeast

Location: Katherine Aerodrome

Current Time: Oct 22, 2019 at 12:45:24 am

Latest Report: Oct 22, 2019 at 12:00 am


Visibility: N/A

Pressure: 29.86 "Hg

Humidity: 14%

Dew Point: 28 °F

Location of Hungry KnobLocation

Past Weather in Hungry Knob — Graph

°F

Hungry Knob Temperature Yesterday

Maximum temperature yesterday: 102 °F (at 1:00 pm)
Minimum temperature yesterday: 66 °F (at 5:00 am)
Average temperature yesterday: 86 °F

High & Low Weather Summary for the Past Weeks

 TemperatureHumidityPressure
High108 °F (Oct 17, 3:30 pm)73% (Oct 17, 6:00 am)30.01 "Hg (Oct 17, 6:00 am)
Low63 °F (Oct 12, 12:30 am)2% (Oct 11, 4:30 pm)29.71 "Hg (Oct 12, 3:30 pm)
Average87 °F26%29.87 "Hg
* Reported Oct 6 11:30 pm — Oct 21 11:30 pm, Hungry Knob. Weather by CustomWeather, © 2019

Note: Actual official high and low records may vary slightly from our data, if they occured in-between our weather recording intervals... More about our weather records

Advertising

Hungry Knob Weather History for the Previous 24 Hours

Scroll right to see more
 ConditionsComfort  
Time TempWeatherWind HumidityBarometerVisibility
11:30 pm
Mon, Oct 21
82 °FClear.12 mph13%29.86 "HgN/A
11:00 pm77 °FClear.8 mph19%29.86 "HgN/A
10:30 pm72 °FClear.7 mph23%29.86 "HgN/A
10:00 pm75 °FClear.6 mph21%29.86 "HgN/A
9:30 pm75 °FClear.5 mph21%29.86 "HgN/A
9:00 pm79 °FClear.3 mph17%29.83 "HgN/A
8:30 pm82 °FClear.3 mph15%29.83 "HgN/A
8:00 pm86 °FClear.3 mph13%29.83 "HgN/A
7:30 pm91 °FClear.6 mph9%29.83 "HgN/A
7:00 pm93 °FSunny.7 mph8%29.80 "HgN/A
6:30 pm97 °FSunny.10 mph6%29.80 "HgN/A
6:00 pm99 °FSunny.10 mph7%29.80 "HgN/A
5:30 pm100 °FSunny.12 mph7%29.80 "HgN/A
5:00 pm100 °FSunny.14 mph7%29.80 "HgN/A
4:30 pm102 °FSunny.12 mph7%29.80 "HgN/A
4:00 pm102 °FScattered clouds.13 mph8%29.80 "HgN/A
3:30 pm100 °FScattered clouds.13 mph8%29.80 "HgN/A
3:00 pm102 °FClear.16 mph7%29.80 "Hg6 mi
2:30 pm100 °FSunny.9 mph8%29.83 "HgN/A
2:00 pm100 °FSunny.21 mph8%29.83 "Hg10 mi
1:27 pm100 °FSunny.17 mph8%29.86 "Hg10 mi
1:00 pm102 °FSunny.17 mph7%29.86 "HgN/A
12:30 pm100 °FSunny.16 mph9%29.89 "HgN/A
12:00 pm100 °FSunny.18 mph8%29.92 "Hg10 mi
11:30 am97 °FSunny.16 mph12%29.92 "Hg10 mi
11:02 am99 °FSunny.17 mph12%29.92 "Hg10 mi
10:30 am95 °FSunny.22 mph14%29.95 "Hg10 mi
9:30 am91 °FPassing clouds.7 mph21%29.98 "HgN/A
9:00 am88 °FSunny.7 mph24%29.98 "HgN/A
8:30 am84 °FSunny.8 mph25%29.98 "HgN/A
8:00 am82 °FSunny.8 mph25%29.98 "HgN/A
7:30 am77 °FSunny.9 mph30%29.95 "HgN/A
7:00 am72 °FSunny.6 mph36%29.95 "HgN/A
6:00 am66 °FClear.6 mph43%29.92 "HgN/A
5:30 am66 °FClear.6 mph43%29.92 "HgN/A
5:00 am66 °FClear.6 mph40%29.89 "HgN/A
4:30 am68 °FClear.6 mph40%29.89 "HgN/A
4:00 am68 °FClear.5 mph38%29.89 "HgN/A
3:30 am68 °FClear.7 mph38%29.89 "HgN/A
3:00 am72 °FClear.2 mph33%29.89 "HgN/A
2:30 am73 °FClear.1 mph31%29.89 "HgN/A
2:00 am75 °FClear.6 mph29%29.89 "HgN/A
1:30 am77 °FClear.6 mph26%29.89 "HgN/A
1:00 am79 °FClear.6 mph24%29.89 "HgN/A
12:30 am81 °FClear.5 mph23%29.89 "HgN/A
12:00 am84 °FClear.6 mph19%29.89 "HgN/A
Weather by CustomWeather, © 2019

See weather overview